OK1VCF-8 Weather Reports


time (UTC)temp
F
wind
direction
speed
knots
gust
knots
rain 1hr
in
rain 24hr
in
rain mn
in
humidity
%
barometer
mb
20260509120356 62 0 0.0 0.0 0.00 0.00 0.00 54 1020.8
20260509113816 64 0 0.0 0.0 0.00 0.00 0.00 50 1020.9
20260509113033 65 0 0.0 0.0 0.00 0.00 0.00 50 1021.0
20260509112259 66 0 0.0 0.0 0.00 0.00 0.00 48 1021.4
20260509111536 64 0 0.0 0.0 0.00 0.00 0.00 50 1021.1
20260509110817 65 0 0.0 0.0 0.00 0.00 0.00 50 1021.1
20260509110059 66 0 0.0 0.0 0.00 0.00 0.00 48 1021.2
20260509105335 65 0 0.0 0.0 0.00 0.00 0.00 49 1021.2
20260509104617 64 0 0.0 0.0 0.00 0.00 0.00 50 1021.3
20260509103857 64 0 0.0 0.0 0.00 0.00 0.00 48 1021.2
20260509103136 64 0 0.0 0.0 0.00 0.00 0.00 50 1021.3
20260509102416 64 0 0.0 0.0 0.00 0.00 0.00 48 1021.2
20260509101656 65 0 0.0 0.0 0.00 0.00 0.00 48 1021.2
20260509100937 66 0 0.0 0.0 0.00 0.00 0.00 47 1021.3
20260509095932 64 0 0.0 0.0 0.00 0.00 0.00 49 1021.4
20260509095211 65 0 0.0 0.0 0.00 0.00 0.00 48 1021.4
20260509094452 66 0 0.0 0.0 0.00 0.00 0.00 51 1021.3
20260509093732 64 0 0.0 0.0 0.00 0.00 0.00 52 1021.4
20260509093012 64 0 0.0 0.0 0.00 0.00 0.00 52 1021.2
20260509092251 64 0 0.0 0.0 0.00 0.00 0.00 54 1021.3
20260509091531 62 0 0.0 0.0 0.00 0.00 0.00 55 1021.2
20260509090811 62 0 0.0 0.0 0.00 0.00 0.00 58 1021.4
20260509090050 60 0 0.0 0.0 0.00 0.00 0.00 60 1021.2
20260509085328 60 0 0.0 0.0 0.00 0.00 0.00 61 1021.4
20260509084608 59 0 0.0 0.0 0.00 0.00 0.00 62 1021.2
20260509083849 60 0 0.0 0.0 0.00 0.00 0.00 60 1021.4
20260509083128 60 0 0.0 0.0 0.00 0.00 0.00 62 1021.4
20260509082408 60 0 0.0 0.0 0.00 0.00 0.00 63 1021.4
20260509081649 58 0 0.0 0.0 0.00 0.00 0.00 65 1021.4
20260509080643 58 0 0.0 0.0 0.00 0.00 0.00 66 1021.4
20260509075921 58 0 0.0 0.0 0.00 0.00 0.00 68 1021.4
20260509075201 58 0 0.0 0.0 0.00 0.00 0.00 70 1021.4
20260509074442 57 0 0.0 0.0 0.00 0.00 0.00 70 1021.4
20260509073723 57 0 0.0 0.0 0.00 0.00 0.00 70 1021.6
20260509073004 56 0 0.0 0.0 0.00 0.00 0.00 72 1021.5
20260509072243 55 0 0.0 0.0 0.00 0.00 0.00 74 1021.5
20260509071512 55 0 0.0 0.0 0.00 0.00 0.00 73 1021.6
20260509070733 55 0 0.0 0.0 0.00 0.00 0.00 73 1021.6
20260509065950 55 0 0.0 0.0 0.00 0.00 0.00 74 1021.5
20260509065212 54 0 0.0 0.0 0.00 0.00 0.00 74 1021.5
20260509064436 54 0 0.0 0.0 0.00 0.00 0.00 75 1021.4
20260509063657 54 0 0.0 0.0 0.00 0.00 0.00 76 1021.4
20260509062918 54 0 0.0 0.0 0.00 0.00 0.00 77 1021.4
20260509062138 54 0 0.0 0.0 0.00 0.00 0.00 76 1021.4
20260509061105 55 0 0.0 0.0 0.00 0.00 0.00 74 1021.4
20260509060325 54 0 0.0 0.0 0.00 0.00 0.00 75 1021.3
20260509055544 54 0 0.0 0.0 0.00 0.00 0.00 76 1021.4
20260509054818 54 0 0.0 0.0 0.00 0.00 0.00 76 1021.4
20260509054058 53 0 0.0 0.0 0.00 0.00 0.00 77 1021.3
20260509053339 52 0 0.0 0.0 0.00 0.00 0.00 78 1021.3
20260509052620 52 0 0.0 0.0 0.00 0.00 0.00 80 1021.4
20260509051901 52 0 0.0 0.0 0.00 0.00 0.00 80 1021.4
20260509051142 51 0 0.0 0.0 0.00 0.00 0.00 81 1021.2
20260509050425 50 0 0.0 0.0 0.00 0.00 0.00 82 1021.1
20260509045706 51 0 0.0 0.0 0.00 0.00 0.00 82 1021.0
20260509044947 51 0 0.0 0.0 0.00 0.00 0.00 82 1021.0
20260509044230 50 0 0.0 0.0 0.00 0.00 0.00 80 1021.0
20260509043512 55 0 0.0 0.0 0.00 0.00 0.00 74 1020.8
20260509042753 52 0 0.0 0.0 0.00 0.00 0.00 80 1020.9
20260509041744 49 0 0.0 0.0 0.00 0.00 0.00 84 1020.8
20260509041028 50 0 0.0 0.0 0.00 0.00 0.00 84 1020.6
20260509040310 50 0 0.0 0.0 0.00 0.00 0.00 87 1020.6
20260509035552 48 0 0.0 0.0 0.00 0.00 0.00 89 1020.6
20260509034834 47 0 0.0 0.0 0.00 0.00 0.00 89 1020.6
20260509034116 46 0 0.0 0.0 0.00 0.00 0.00 90 1020.8
20260509031932 46 0 0.0 0.0 0.00 0.00 0.00 90 1020.8
20260509031213 46 0 0.0 0.0 0.00 0.00 0.00 90 1020.8
20260509030456 46 0 0.0 0.0 0.00 0.00 0.00 89 1020.8
20260509025736 46 0 0.0 0.0 0.00 0.00 0.00 89 1020.8
20260509025017 46 0 0.0 0.0 0.00 0.00 0.00 88 1021.0
20260509024300 47 0 0.0 0.0 0.00 0.00 0.00 88 1020.9
20260509023541 46 0 0.0 0.0 0.00 0.00 0.00 88 1020.8
20260509022541 47 0 0.0 0.0 0.00 0.00 0.00 88 1020.8
20260509021822 47 0 0.0 0.0 0.00 0.00 0.00 88 1020.8
20260509021103 48 0 0.0 0.0 0.00 0.00 0.00 88 1020.8
20260509020345 47 0 0.0 0.0 0.00 0.00 0.00 88 1020.8
20260509015629 47 0 0.0 0.0 0.00 0.00 0.00 88 1021.0
20260509014910 48 0 0.0 0.0 0.00 0.00 0.00 87 1020.9
20260509014153 48 0 0.0 0.0 0.00 0.00 0.00 88 1021.0
20260509013434 47 0 0.0 0.0 0.00 0.00 0.00 88 1020.8
20260509012711 48 0 0.0 0.0 0.00 0.00 0.00 88 1020.9
20260509011938 48 0 0.0 0.0 0.00 0.00 0.00 88 1020.9
20260509011200 48 0 0.0 0.0 0.00 0.00 0.00 88 1020.9
20260509004934 48 0 0.0 0.0 0.00 0.00 0.00 86 1020.9
20260509004137 48 0 0.0 0.0 0.00 0.00 0.00 86 1020.8
20260509003041 48 0 0.0 0.0 0.00 0.00 0.00 86 1020.8
20260509002241 48 0 0.0 0.0 0.00 0.00 0.00 86 1020.8
20260509001440 48 0 0.0 0.0 0.00 0.00 0.00 86 1020.9
20260509000621 48 0 0.0 0.0 0.00 0.00 0.00 86 1020.9
20260508235824 49 0 0.0 0.0 0.00 0.00 0.00 84 1020.8
20260508235027 49 0 0.0 0.0 0.00 0.00 0.00 84 1020.9
20260508234231 49 0 0.0 0.0 0.00 0.00 0.00 84 1020.9
20260508233451 49 0 0.0 0.0 0.00 0.00 0.00 84 1020.9
20260508232714 50 0 0.0 0.0 0.00 0.00 0.00 83 1021.0
20260508231948 50 0 0.0 0.0 0.00 0.00 0.00 83 1021.0
20260508231230 50 0 0.0 0.0 0.00 0.00 0.00 82 1021.0
20260508230513 50 0 0.0 0.0 0.00 0.00 0.00 83 1021.0
20260508225756 50 0 0.0 0.0 0.00 0.00 0.00 83 1021.0
20260508225038 50 0 0.0 0.0 0.00 0.00 0.00 83 1021.0
20260508224320 50 0 0.0 0.0 0.00 0.00 0.00 82 1021.0
20260508223315 50 0 0.0 0.0 0.00 0.00 0.00 82 1021.0
20260508222558 50 0 0.0 0.0 0.00 0.00 0.00 82 1021.2
20260508221839 50 0 0.0 0.0 0.00 0.00 0.00 82 1021.2
20260508221122 50 0 0.0 0.0 0.00 0.00 0.00 82 1021.1
20260508220403 50 0 0.0 0.0 0.00 0.00 0.00 81 1021.2
20260508215646 50 0 0.0 0.0 0.00 0.00 0.00 81 1021.2
20260508214928 50 0 0.0 0.0 0.00 0.00 0.00 81 1021.0
20260508214210 50 0 0.0 0.0 0.00 0.00 0.00 80 1021.0
20260508213454 50 0 0.0 0.0 0.00 0.00 0.00 80 1021.0
20260508212736 50 0 0.0 0.0 0.00 0.00 0.00 81 1021.0
20260508212019 50 0 0.0 0.0 0.00 0.00 0.00 81 1021.0
20260508211300 50 0 0.0 0.0 0.00 0.00 0.00 80 1020.8
20260508210543 50 0 0.0 0.0 0.00 0.00 0.00 80 1021.0
20260508205826 50 0 0.0 0.0 0.00 0.00 0.00 82 1021.2
20260508205108 50 0 0.0 0.0 0.00 0.00 0.00 82 1021.0
20260508204108 50 0 0.0 0.0 0.00 0.00 0.00 82 1021.0
20260508203351 50 0 0.0 0.0 0.00 0.00 0.00 82 1020.8
20260508202634 49 0 0.0 0.0 0.00 0.00 0.00 82 1020.8
20260508201915 50 0 0.0 0.0 0.00 0.00 0.00 82 1020.6
20260508201158 50 0 0.0 0.0 0.00 0.00 0.00 82 1020.8
20260508200439 50 0 0.0 0.0 0.00 0.00 0.00 82 1020.7
20260508195721 50 0 0.0 0.0 0.00 0.00 0.00 82 1020.8
20260508195005 50 0 0.0 0.0 0.00 0.00 0.00 81 1020.6
20260508192828 51 0 0.0 0.0 0.00 0.00 0.00 80 1020.4
20260508192109 51 0 0.0 0.0 0.00 0.00 0.00 79 1020.4
20260508191352 52 0 0.0 0.0 0.00 0.00 0.00 78 1020.2
20260508190633 52 0 0.0 0.0 0.00 0.00 0.00 77 1020.2
20260508185915 52 0 0.0 0.0 0.00 0.00 0.00 78 1020.2
20260508184913 52 0 0.0 0.0 0.00 0.00 0.00 76 1020.0
20260508184153 52 0 0.0 0.0 0.00 0.00 0.00 76 1019.8
20260508183434 53 0 0.0 0.0 0.00 0.00 0.00 74 1019.6
20260508182715 54 0 0.0 0.0 0.00 0.00 0.00 74 1019.6
20260508181956 54 0 0.0 0.0 0.00 0.00 0.00 72 1019.6
20260508181237 54 0 0.0 0.0 0.00 0.00 0.00 72 1019.4
20260508180520 55 0 0.0 0.0 0.00 0.00 0.00 70 1019.2
20260508175800 55 0 0.0 0.0 0.00 0.00 0.00 70 1019.1
20260508175041 56 0 0.0 0.0 0.00 0.00 0.00 68 1019.2
20260508174322 57 0 0.0 0.0 0.00 0.00 0.00 66 1019.0
20260508173604 58 0 0.0 0.0 0.00 0.00 0.00 64 1019.1
20260508172844 58 0 0.0 0.0 0.00 0.00 0.00 64 1019.2
20260508172125 58 0 0.0 0.0 0.00 0.00 0.00 62 1019.0
20260508171406 58 0 0.0 0.0 0.00 0.00 0.00 62 1018.9
20260508170648 59 0 0.0 0.0 0.00 0.00 0.00 62 1018.8
20260508165643 60 0 0.0 0.0 0.00 0.00 0.00 60 1018.9
20260508164925 66 0 0.0 0.0 0.00 0.00 0.00 49 1018.9
20260508164208 67 0 0.0 0.0 0.00 0.00 0.00 48 1018.8
20260508163448 67 0 0.0 0.0 0.00 0.00 0.00 48 1018.8
20260508162728 64 0 0.0 0.0 0.00 0.00 0.00 53 1019.0
20260508162010 60 0 0.0 0.0 0.00 0.00 0.00 58 1019.0
20260508161252 62 0 0.0 0.0 0.00 0.00 0.00 54 1018.9
20260508160534 64 0 0.0 0.0 0.00 0.00 0.00 51 1019.0
20260508155812 62 0 0.0 0.0 0.00 0.00 0.00 53 1019.0
20260508155052 68 0 0.0 0.0 0.00 0.00 0.00 46 1019.0
20260508154335 68 0 0.0 0.0 0.00 0.00 0.00 46 1019.0
20260508152154 68 0 0.0 0.0 0.00 0.00 0.00 46 1018.8
20260508151433 64 0 0.0 0.0 0.00 0.00 0.00 49 1019.0
20260508150431 68 0 0.0 0.0 0.00 0.00 0.00 47 1019.1
20260508145711 66 0 0.0 0.0 0.00 0.00 0.00 49 1019.1
20260508144951 69 0 0.0 0.0 0.00 0.00 0.00 46 1019.2
20260508144233 68 0 0.0 0.0 0.00 0.00 0.00 47 1019.2
20260508143513 62 0 0.0 0.0 0.00 0.00 0.00 56 1019.2
20260508142753 64 0 0.0 0.0 0.00 0.00 0.00 54 1019.4
20260508142032 62 0 0.0 0.0 0.00 0.00 0.00 56 1019.3
20260508141312 62 0 0.0 0.0 0.00 0.00 0.00 54 1019.4
20260508140554 62 0 0.0 0.0 0.00 0.00 0.00 56 1019.4
20260508135834 60 0 0.0 0.0 0.00 0.00 0.00 56 1019.4
20260508135114 62 0 0.0 0.0 0.00 0.00 0.00 56 1019.4
20260508134356 62 0 0.0 0.0 0.00 0.00 0.00 56 1019.4
20260508133636 60 0 0.0 0.0 0.00 0.00 0.00 59 1019.3
20260508132916 59 0 0.0 0.0 0.00 0.00 0.00 60 1019.4
20260508132158 60 0 0.0 0.0 0.00 0.00 0.00 58 1020.0
20260508131153 60 0 0.0 0.0 0.00 0.00 0.00 56 1019.5
20260508130433 60 0 0.0 0.0 0.00 0.00 0.00 56 1019.6
20260508125650 60 0 0.0 0.0 0.00 0.00 0.00 57 1019.5
20260508124855 62 0 0.0 0.0 0.00 0.00 0.00 56 1019.5
20260508124044 62 0 0.0 0.0 0.00 0.00 0.00 56 1019.4
20260508123223 62 0 0.0 0.0 0.00 0.00 0.00 56 1019.4
20260508122408 60 0 0.0 0.0 0.00 0.00 0.00 56 1019.4
20260508121544 60 0 0.0 0.0 0.00 0.00 0.00 56 1019.4